Time,TemperatureF,DewpointF,PressureIn,WindDirection,WindDirectionDegrees,WindSpeedMPH,WindSpeedGustMPH,Humidity,HourlyPrecipIn,Conditions,Clouds,dailyrainin,SoftwareType,DateUTC
2013-06-27 00:01:00,75.3,71.8,29.83,SSW,202,0.8,0.8,89,0.00,,---,0.00,VWS V14.00,2013-06-27 04:01:00,
2013-06-27 00:06:00,75.3,71.8,29.83,SSW,202,0.0,0.0,89,0.00,,---,0.00,VWS V14.00,2013-06-27 04:06:00,
2013-06-27 00:11:00,75.3,71.5,29.83,SSW,202,0.0,0.0,88,0.00,,---,0.00,VWS V14.00,2013-06-27 04:11:00,
2013-06-27 00:16:00,75.3,71.5,29.84,South,180,0.0,0.0,88,0.00,,---,0.00,VWS V14.00,2013-06-27 04:16:00,
2013-06-27 00:21:00,75.3,71.5,29.85,NE,45,2.6,2.6,88,0.00,,---,0.00,VWS V14.00,2013-06-27 04:21:00,
2013-06-27 00:26:00,75.3,71.2,29.85,ENE,68,0.0,0.0,87,0.00,,---,0.00,VWS V14.00,2013-06-27 04:26:00,
2013-06-27 00:31:00,75.3,71.2,29.85,ENE,68,2.6,2.6,87,0.00,,---,0.00,VWS V14.00,2013-06-27 04:31:00,
2013-06-27 00:36:00,75.2,71.1,29.86,ENE,68,2.6,2.6,87,0.00,,---,0.00,VWS V14.00,2013-06-27 04:36:00,
2013-06-27 00:41:00,75.0,70.9,29.86,ENE,68,2.0,2.0,87,0.00,,---,0.00,VWS V14.00,2013-06-27 04:41:00,
2013-06-27 00:46:00,74.8,70.7,29.87,ENE,68,4.0,4.0,87,0.00,,---,0.00,VWS V14.00,2013-06-27 04:46:00,
2013-06-27 00:51:00,74.8,70.7,29.86,NE,45,0.0,0.0,87,0.00,,---,0.00,VWS V14.00,2013-06-27 04:51:00,
2013-06-27 00:56:00,74.8,70.7,29.87,ENE,68,0.0,0.0,87,0.00,,---,0.00,VWS V14.00,2013-06-27 04:56:00,
2013-06-27 01:01:00,74.8,70.7,29.87,NE,45,0.0,0.0,87,0.00,,---,0.00,VWS V14.00,2013-06-27 05:01:00,
2013-06-27 01:06:00,74.8,70.7,29.86,NE,45,0.0,0.0,87,0.00,,---,0.00,VWS V14.00,2013-06-27 05:06:00,
2013-06-27 01:11:00,74.8,70.7,29.86,NE,45,0.0,0.0,87,0.00,,---,0.00,VWS V14.00,2013-06-27 05:11:00,
2013-06-27 01:16:00,74.4,70.3,29.86,ENE,68,0.8,0.8,87,0.00,,---,0.00,VWS V14.00,2013-06-27 05:16:00,
2013-06-27 01:21:00,74.4,70.3,29.86,NE,45,0.0,0.0,87,0.00,,---,0.00,VWS V14.00,2013-06-27 05:21:00,
2013-06-27 01:26:00,74.4,70.3,29.86,East,90,1.7,1.7,87,0.00,,---,0.00,VWS V14.00,2013-06-27 05:26:00,
2013-06-27 01:31:00,74.4,70.3,29.86,NE,45,3.8,3.8,87,0.00,,---,0.00,VWS V14.00,2013-06-27 05:31:00,
2013-06-27 01:36:00,74.4,70.3,29.86,ENE,68,1.3,1.3,87,0.00,,---,0.00,VWS V14.00,2013-06-27 05:36:00,
2013-06-27 01:41:00,74.4,70.6,29.85,East,90,2.0,2.0,88,0.00,,---,0.00,VWS V14.00,2013-06-27 05:41:00,
2013-06-27 01:46:00,74.3,70.5,29.85,ENE,68,1.7,1.7,88,0.00,,---,0.00,VWS V14.00,2013-06-27 05:46:00,
2013-06-27 01:51:00,74.3,70.5,29.85,ENE,68,0.8,0.8,88,0.00,,---,0.00,VWS V14.00,2013-06-27 05:51:00,
2013-06-27 01:56:00,74.1,70.3,29.85,ENE,68,0.0,0.0,88,0.00,,---,0.00,VWS V14.00,2013-06-27 05:56:00,
2013-06-27 02:01:00,74.1,70.3,29.85,ENE,68,0.0,0.0,88,0.00,,---,0.00,VWS V14.00,2013-06-27 06:01:00,
2013-06-27 02:06:00,74.1,70.3,29.84,ENE,68,0.0,0.0,88,0.00,,---,0.00,VWS V14.00,2013-06-27 06:06:00,
2013-06-27 02:11:00,73.9,70.1,29.84,ENE,68,0.0,0.0,88,0.00,,---,0.00,VWS V14.00,2013-06-27 06:11:00,
2013-06-27 02:16:00,73.9,70.1,29.84,ENE,68,0.0,0.0,88,0.00,,---,0.00,VWS V14.00,2013-06-27 06:16:00,
2013-06-27 02:21:00,73.9,70.1,29.84,ENE,68,0.0,0.0,88,0.00,,---,0.00,VWS V14.00,2013-06-27 06:21:00,
2013-06-27 02:26:00,73.9,70.1,29.84,ENE,68,0.0,0.0,88,0.00,,---,0.00,VWS V14.00,2013-06-27 06:26:00,
2013-06-27 02:31:00,73.7,70.3,29.84,ENE,68,0.0,0.0,89,0.00,,---,0.00,VWS V14.00,2013-06-27 06:31:00,
2013-06-27 02:36:00,73.7,70.3,29.84,ENE,68,0.0,0.0,89,0.00,,---,0.00,VWS V14.00,2013-06-27 06:36:00,
2013-06-27 02:41:00,73.7,70.3,29.83,ENE,68,0.0,0.0,89,0.00,,---,0.00,VWS V14.00,2013-06-27 06:41:00,
2013-06-27 02:46:00,73.7,69.9,29.83,ENE,68,0.0,0.0,88,0.00,,---,0.00,VWS V14.00,2013-06-27 06:46:00,
2013-06-27 02:51:00,73.7,69.9,29.82,ENE,68,0.0,0.0,88,0.00,,---,0.00,VWS V14.00,2013-06-27 06:51:00,
2013-06-27 02:56:00,73.7,69.9,29.82,ENE,68,0.0,0.0,88,0.00,,---,0.00,VWS V14.00,2013-06-27 06:56:00,
2013-06-27 03:01:00,73.7,69.9,29.82,ENE,68,0.0,0.0,88,0.00,,---,0.00,VWS V14.00,2013-06-27 07:01:00,
2013-06-27 03:06:00,73.7,70.3,29.82,ENE,68,0.0,0.0,89,0.00,,---,0.00,VWS V14.00,2013-06-27 07:06:00,
2013-06-27 03:11:00,73.7,70.3,29.82,ENE,68,0.0,0.0,89,0.00,,---,0.00,VWS V14.00,2013-06-27 07:11:00,
2013-06-27 03:17:00,73.9,70.5,29.82,ENE,68,0.0,0.0,89,0.00,,---,0.00,VWS V14.00,2013-06-27 07:17:00,
2013-06-27 03:21:00,73.9,70.5,29.82,ENE,68,0.0,0.0,89,0.00,,---,0.00,VWS V14.00,2013-06-27 07:21:00,
2013-06-27 03:27:00,73.7,70.3,29.82,ENE,68,0.0,0.0,89,0.00,,---,0.00,VWS V14.00,2013-06-27 07:27:00,
2013-06-27 03:32:00,73.7,70.3,29.82,ENE,68,0.0,0.0,89,0.00,,---,0.00,VWS V14.00,2013-06-27 07:32:00,
2013-06-27 03:36:00,73.7,70.3,29.82,ENE,68,0.0,0.0,89,0.00,,---,0.00,VWS V14.00,2013-06-27 07:36:00,
2013-06-27 03:41:00,73.7,70.3,29.82,ENE,68,0.0,0.0,89,0.00,,---,0.00,VWS V14.00,2013-06-27 07:41:00,
2013-06-27 03:46:00,73.9,70.5,29.82,SSW,202,0.0,0.0,89,0.00,,---,0.00,VWS V14.00,2013-06-27 07:46:00,
2013-06-27 03:51:00,73.7,70.6,29.82,SW,225,0.0,0.0,90,0.00,,---,0.00,VWS V14.00,2013-06-27 07:51:00,
2013-06-27 03:56:00,73.9,70.8,29.81,SSW,202,1.3,1.3,90,0.00,,---,0.00,VWS V14.00,2013-06-27 07:56:00,
2013-06-27 04:01:00,73.9,70.8,29.82,SSW,202,3.8,3.8,90,0.00,,---,0.00,VWS V14.00,2013-06-27 08:01:00,
2013-06-27 04:06:00,74.1,71.0,29.81,SSW,202,4.0,4.0,90,0.00,,---,0.00,VWS V14.00,2013-06-27 08:06:00,
2013-06-27 04:11:00,74.1,71.0,29.82,SSW,202,0.6,0.6,90,0.00,,---,0.00,VWS V14.00,2013-06-27 08:11:00,
2013-06-27 04:16:00,74.1,71.0,29.82,SSW,202,0.0,0.0,90,0.00,,---,0.00,VWS V14.00,2013-06-27 08:16:00,
2013-06-27 04:21:00,74.1,71.0,29.82,SSW,202,0.0,0.0,90,0.00,,---,0.00,VWS V14.00,2013-06-27 08:21:00,
2013-06-27 04:26:00,74.1,71.0,29.82,SSW,202,0.0,0.0,90,0.00,,---,0.00,VWS V14.00,2013-06-27 08:26:00,
2013-06-27 04:31:00,74.1,71.0,29.82,SSW,202,0.0,0.0,90,0.00,,---,0.00,VWS V14.00,2013-06-27 08:31:00,
2013-06-27 04:36:00,74.1,71.0,29.82,SSW,202,0.0,0.0,90,0.00,,---,0.00,VWS V14.00,2013-06-27 08:36:00,
2013-06-27 04:41:00,74.1,71.0,29.82,SSW,202,0.0,0.0,90,0.00,,---,0.00,VWS V14.00,2013-06-27 08:41:00,
2013-06-27 04:46:00,74.1,71.0,29.82,SSW,202,0.0,0.0,90,0.00,,---,0.00,VWS V14.00,2013-06-27 08:46:00,
2013-06-27 04:51:00,73.9,70.8,29.83,SSW,202,0.0,0.0,90,0.00,,---,0.00,VWS V14.00,2013-06-27 08:51:00,
2013-06-27 04:56:00,74.1,71.0,29.83,SSW,202,0.0,0.0,90,0.00,,---,0.00,VWS V14.00,2013-06-27 08:56:00,
2013-06-27 05:01:00,73.9,70.8,29.83,SSW,202,0.0,0.0,90,0.00,,---,0.00,VWS V14.00,2013-06-27 09:01:00,
2013-06-27 05:06:00,73.9,70.8,29.83,SSW,202,0.0,0.0,90,0.00,,---,0.00,VWS V14.00,2013-06-27 09:06:00,
2013-06-27 05:11:00,74.1,71.0,29.83,SSW,202,0.0,0.0,90,0.00,,---,0.00,VWS V14.00,2013-06-27 09:11:00,
2013-06-27 05:16:00,74.1,71.0,29.83,SSW,202,0.4,0.4,90,0.00,,---,0.00,VWS V14.00,2013-06-27 09:16:00,
2013-06-27 05:21:00,74.1,71.0,29.83,SSW,202,0.0,0.0,90,0.00,,---,0.00,VWS V14.00,2013-06-27 09:21:00,
2013-06-27 05:26:00,74.1,71.0,29.83,SSW,202,0.0,0.0,90,0.00,,---,0.00,VWS V14.00,2013-06-27 09:26:00,
2013-06-27 05:31:00,74.1,71.0,29.83,SSW,202,0.0,0.0,90,0.00,,---,0.00,VWS V14.00,2013-06-27 09:31:00,
2013-06-27 05:36:00,74.1,71.0,29.83,SSW,202,0.0,0.0,90,0.00,,---,0.00,VWS V14.00,2013-06-27 09:36:00,
2013-06-27 05:41:00,73.9,70.8,29.83,SSW,202,0.0,0.0,90,0.00,,---,0.00,VWS V14.00,2013-06-27 09:41:00,
2013-06-27 05:46:00,73.9,70.8,29.83,SSW,202,0.0,0.0,90,0.00,,---,0.00,VWS V14.00,2013-06-27 09:46:00,
2013-06-27 05:51:00,73.9,70.8,29.83,SSW,202,0.0,0.0,90,0.00,,---,0.00,VWS V14.00,2013-06-27 09:51:00,
2013-06-27 05:56:00,73.9,70.8,29.84,SSW,202,0.0,0.0,90,0.00,,---,0.00,VWS V14.00,2013-06-27 09:56:00,
2013-06-27 06:01:00,73.9,70.8,29.84,SSW,202,0.0,0.0,90,0.00,,---,0.00,VWS V14.00,2013-06-27 10:01:00,
2013-06-27 06:06:00,73.9,70.8,29.84,SSW,202,0.0,0.0,90,0.00,,---,0.00,VWS V14.00,2013-06-27 10:06:00,
2013-06-27 06:11:00,73.9,70.8,29.84,SSW,202,0.0,0.0,90,0.00,,---,0.00,VWS V14.00,2013-06-27 10:11:00,
2013-06-27 06:16:00,73.9,70.8,29.84,SSW,202,0.0,0.0,90,0.00,,---,0.00,VWS V14.00,2013-06-27 10:16:00,
2013-06-27 06:21:00,73.9,70.8,29.84,SSW,202,0.0,0.0,90,0.00,,---,0.00,VWS V14.00,2013-06-27 10:21:00,
2013-06-27 06:26:00,73.9,70.8,29.85,SSW,202,0.0,0.0,90,0.00,,---,0.00,VWS V14.00,2013-06-27 10:26:00,
2013-06-27 06:31:00,73.9,70.8,29.84,SSW,202,0.0,0.0,90,0.00,,---,0.00,VWS V14.00,2013-06-27 10:31:00,
2013-06-27 06:36:00,73.9,70.8,29.85,SSW,202,0.0,0.0,90,0.00,,---,0.00,VWS V14.00,2013-06-27 10:36:00,
2013-06-27 06:41:00,73.9,70.8,29.85,SSW,202,0.0,0.0,90,0.00,,---,0.00,VWS V14.00,2013-06-27 10:41:00,
2013-06-27 06:46:00,74.1,71.3,29.84,SSW,202,0.0,0.0,91,0.00,,---,0.00,VWS V14.00,2013-06-27 10:46:00,
2013-06-27 06:51:00,74.1,71.3,29.85,SSW,202,0.0,0.0,91,0.00,,---,0.00,VWS V14.00,2013-06-27 10:51:00,
2013-06-27 06:56:00,74.1,71.3,29.84,SSW,202,0.0,0.0,91,0.00,,---,0.00,VWS V14.00,2013-06-27 10:56:00,
2013-06-27 07:01:00,74.3,71.5,29.84,NW,315,0.0,0.0,91,0.00,,---,0.00,VWS V14.00,2013-06-27 11:01:00,
2013-06-27 07:06:00,74.4,71.6,29.84,NW,315,0.0,0.0,91,0.00,,---,0.00,VWS V14.00,2013-06-27 11:06:00,
2013-06-27 07:11:00,74.6,71.8,29.84,NW,315,0.0,0.0,91,0.00,,---,0.00,VWS V14.00,2013-06-27 11:11:00,
2013-06-27 07:16:00,75.0,72.2,29.85,NW,315,0.0,0.0,91,0.00,,---,0.00,VWS V14.00,2013-06-27 11:16:00,
2013-06-27 07:21:00,75.3,72.5,29.84,NW,315,0.0,0.0,91,0.00,,---,0.00,VWS V14.00,2013-06-27 11:21:00,
2013-06-27 07:26:00,75.5,72.7,29.85,NW,315,0.0,0.0,91,0.00,,---,0.00,VWS V14.00,2013-06-27 11:26:00,
2013-06-27 07:31:00,75.9,73.1,29.84,SW,225,1.1,1.1,91,0.00,,---,0.00,VWS V14.00,2013-06-27 11:31:00,
2013-06-27 07:36:00,76.8,74.3,29.84,SW,225,0.0,0.0,92,0.00,,---,0.00,VWS V14.00,2013-06-27 11:36:00,
2013-06-27 07:41:00,78.6,76.1,29.85,SW,225,0.0,0.0,92,0.00,,---,0.00,VWS V14.00,2013-06-27 11:41:00,
2013-06-27 07:46:00,81.3,78.4,29.85,SW,225,0.0,0.0,91,0.00,,---,0.00,VWS V14.00,2013-06-27 11:46:00,
2013-06-27 07:51:00,83.8,79.9,29.85,SW,225,0.0,0.0,88,0.00,,---,0.00,VWS V14.00,2013-06-27 11:51:00,
2013-06-27 07:56:00,84.9,79.2,29.85,SW,225,2.0,2.0,83,0.00,,---,0.00,VWS V14.00,2013-06-27 11:56:00,
2013-06-27 08:01:00,84.9,79.2,29.85,SW,225,2.0,2.0,83,0.00,,---,0.00,VWS V14.00,2013-06-27 12:01:00,
2013-06-27 08:06:00,84.9,79.2,29.85,SW,225,2.0,2.0,83,0.00,,---,0.00,VWS V14.00,2013-06-27 12:06:00,
2013-06-27 08:11:00,84.0,77.5,29.85,SSE,158,0.0,0.0,81,0.00,,---,0.00,VWS V14.00,2013-06-27 12:11:00,
2013-06-27 08:16:00,84.5,77.7,29.85,SW,225,0.6,2.9,80,0.00,,---,0.00,VWS V14.00,2013-06-27 12:16:00,
2013-06-27 08:21:00,84.5,77.3,29.85,SSW,202,0.0,0.8,79,0.00,,---,0.00,VWS V14.00,2013-06-27 12:21:00,
2013-06-27 08:26:00,84.7,77.5,29.85,SSW,202,3.1,3.1,79,0.00,,---,0.00,VWS V14.00,2013-06-27 12:26:00,
2013-06-27 08:31:00,84.2,76.6,29.85,SW,225,0.0,0.0,78,0.00,,---,0.00,VWS V14.00,2013-06-27 12:31:00,
2013-06-27 08:36:00,83.4,75.8,29.85,SW,225,0.0,0.0,78,0.00,,---,0.00,VWS V14.00,2013-06-27 12:36:00,
2013-06-27 08:41:00,82.7,75.5,29.85,SW,225,2.6,2.6,79,0.00,,---,0.00,VWS V14.00,2013-06-27 12:41:00,
2013-06-27 08:46:00,82.2,75.4,29.85,SW,225,0.0,0.0,80,0.00,,---,0.00,VWS V14.00,2013-06-27 12:46:00,
2013-06-27 08:51:00,82.0,75.6,29.86,SW,225,0.0,0.0,81,0.00,,---,0.00,VWS V14.00,2013-06-27 12:51:00,
2013-06-27 08:56:00,81.6,75.2,29.86,WNW,292,0.0,0.0,81,0.00,,---,0.00,VWS V14.00,2013-06-27 12:56:00,
2013-06-27 09:01:00,81.5,75.5,29.86,WSW,248,0.0,0.0,82,0.00,,---,0.00,VWS V14.00,2013-06-27 13:01:00,
2013-06-27 09:06:00,81.5,75.5,29.86,SW,225,0.8,0.8,82,0.00,,---,0.00,VWS V14.00,2013-06-27 13:06:00,
2013-06-27 09:11:00,81.6,75.6,29.86,SSW,202,0.0,0.0,82,0.00,,---,0.00,VWS V14.00,2013-06-27 13:11:00,
2013-06-27 09:16:00,81.6,75.6,29.86,WSW,248,0.0,0.0,82,0.00,,---,0.00,VWS V14.00,2013-06-27 13:16:00,
2013-06-27 09:21:00,81.8,75.8,29.87,WNW,292,0.0,0.0,82,0.00,,---,0.00,VWS V14.00,2013-06-27 13:21:00,
2013-06-27 09:26:00,82.0,75.6,29.87,SSW,202,2.6,2.6,81,0.00,,---,0.00,VWS V14.00,2013-06-27 13:26:00,
2013-06-27 09:31:00,82.2,75.8,29.86,West,270,0.0,0.0,81,0.00,,---,0.00,VWS V14.00,2013-06-27 13:31:00,
2013-06-27 09:36:00,82.2,75.8,29.86,WNW,292,0.0,0.0,81,0.00,,---,0.00,VWS V14.00,2013-06-27 13:36:00,
2013-06-27 09:41:00,82.2,75.4,29.86,WNW,292,0.0,0.0,80,0.00,,---,0.00,VWS V14.00,2013-06-27 13:41:00,
2013-06-27 09:46:00,82.5,75.7,29.85,WNW,292,0.0,0.0,80,0.00,,---,0.00,VWS V14.00,2013-06-27 13:46:00,
2013-06-27 09:51:00,82.7,75.5,29.86,WNW,292,0.0,0.0,79,0.00,,---,0.00,VWS V14.00,2013-06-27 13:51:00,
2013-06-27 09:56:00,82.9,75.7,29.85,WNW,292,0.0,0.0,79,0.00,,---,0.00,VWS V14.00,2013-06-27 13:56:00,
2013-06-27 10:01:00,82.9,75.7,29.85,WNW,292,0.0,0.0,79,0.00,,---,0.00,VWS V14.00,2013-06-27 14:01:00,
2013-06-27 10:06:00,83.1,75.9,29.85,West,270,0.0,0.0,79,0.00,,---,0.00,VWS V14.00,2013-06-27 14:06:00,
2013-06-27 10:11:00,83.4,75.8,29.85,West,270,0.0,0.0,78,0.00,,---,0.00,VWS V14.00,2013-06-27 14:11:00,
2013-06-27 10:16:00,83.6,76.0,29.85,SSW,202,3.1,3.1,78,0.00,,---,0.00,VWS V14.00,2013-06-27 14:16:00,
2013-06-27 10:21:00,83.4,75.4,29.84,West,270,0.0,0.0,77,0.00,,---,0.00,VWS V14.00,2013-06-27 14:21:00,
2013-06-27 10:25:00,83.8,75.8,29.85,SSW,202,0.8,0.8,77,0.00,,---,0.00,VWS V14.00,2013-06-27 14:25:00,
2013-06-27 10:31:00,84.0,76.0,29.85,SW,225,1.3,1.3,77,0.00,,---,0.00,VWS V14.00,2013-06-27 14:31:00,
2013-06-27 10:36:00,84.5,76.5,29.85,West,270,0.0,0.0,77,0.00,,---,0.00,VWS V14.00,2013-06-27 14:36:00,
2013-06-27 10:41:00,84.9,76.9,29.85,SW,225,3.1,3.1,77,0.00,,---,0.00,VWS V14.00,2013-06-27 14:41:00,
2013-06-27 10:46:00,85.2,76.4,29.85,SSE,158,0.0,0.0,75,0.00,,---,0.00,VWS V14.00,2013-06-27 14:46:00,
2013-06-27 10:51:00,85.6,76.8,29.85,SSW,202,0.8,0.8,75,0.00,,---,0.00,VWS V14.00,2013-06-27 14:51:00,
2013-06-27 10:55:00,85.8,76.6,29.85,SSW,202,2.0,2.0,74,0.00,,---,0.00,VWS V14.00,2013-06-27 14:55:00,
2013-06-27 11:00:00,86.1,76.4,29.85,WNW,292,0.0,0.0,73,0.00,,---,0.00,VWS V14.00,2013-06-27 15:00:00,
2013-06-27 11:05:00,86.0,75.9,29.85,NNW,338,0.0,0.0,72,0.00,,---,0.00,VWS V14.00,2013-06-27 15:05:00,
2013-06-27 11:10:00,85.6,76.0,29.85,SSW,202,3.3,3.3,73,0.00,,---,0.00,VWS V14.00,2013-06-27 15:10:00,
2013-06-27 11:15:00,85.8,76.6,29.84,West,270,0.4,0.4,74,0.00,,---,0.00,VWS V14.00,2013-06-27 15:15:00,
2013-06-27 11:20:00,86.0,76.3,29.84,SSW,202,1.3,1.3,73,0.00,,---,0.00,VWS V14.00,2013-06-27 15:20:00,
2013-06-27 11:25:00,86.5,76.8,29.84,SW,225,5.3,5.3,73,0.00,,---,0.00,VWS V14.00,2013-06-27 15:25:00,
2013-06-27 11:30:00,86.9,76.8,29.84,SW,225,0.0,0.0,72,0.00,,---,0.00,VWS V14.00,2013-06-27 15:30:00,
2013-06-27 11:35:00,87.0,76.9,29.85,NW,315,0.0,0.0,72,0.00,,---,0.00,VWS V14.00,2013-06-27 15:35:00,
2013-06-27 11:40:00,87.0,76.5,29.84,West,270,0.4,0.4,71,0.00,,---,0.00,VWS V14.00,2013-06-27 15:40:00,
2013-06-27 11:45:00,86.9,76.4,29.84,NNW,338,0.0,0.0,71,0.00,,---,0.00,VWS V14.00,2013-06-27 15:45:00,
2013-06-27 11:50:00,86.5,75.6,29.84,NW,315,0.0,0.0,70,0.00,,---,0.00,VWS V14.00,2013-06-27 15:50:00,
2013-06-27 11:55:00,86.5,76.0,29.84,NW,315,0.0,0.0,71,0.00,,---,0.00,VWS V14.00,2013-06-27 15:55:00,
2013-06-27 12:00:00,86.7,75.8,29.83,West,270,0.0,0.0,70,0.00,,---,0.00,VWS V14.00,2013-06-27 16:00:00,
2013-06-27 12:05:00,86.9,75.9,29.84,SW,225,0.0,0.0,70,0.00,,---,0.00,VWS V14.00,2013-06-27 16:05:00,
2013-06-27 12:10:00,87.2,76.2,29.84,West,270,0.0,0.0,70,0.00,,---,0.00,VWS V14.00,2013-06-27 16:10:00,
2013-06-27 12:15:00,87.4,76.4,29.84,West,270,0.0,0.0,70,0.00,,---,0.00,VWS V14.00,2013-06-27 16:15:00,
2013-06-27 12:20:00,87.6,76.6,29.84,WNW,292,0.0,0.0,70,0.00,,---,0.00,VWS V14.00,2013-06-27 16:20:00,
2013-06-27 12:25:00,87.6,76.2,29.84,WNW,292,3.1,3.1,69,0.00,,---,0.00,VWS V14.00,2013-06-27 16:25:00,
2013-06-27 12:30:00,87.0,75.2,29.84,West,270,1.1,1.1,68,0.00,,---,0.00,VWS V14.00,2013-06-27 16:30:00,
2013-06-27 12:35:00,86.7,75.3,29.84,NW,315,2.0,2.0,69,0.00,,---,0.00,VWS V14.00,2013-06-27 16:35:00,
2013-06-27 12:40:00,87.0,76.0,29.84,WNW,292,2.6,2.6,70,0.00,,---,0.00,VWS V14.00,2013-06-27 16:40:00,
2013-06-27 12:45:00,87.6,76.2,29.83,WNW,292,0.8,0.8,69,0.00,,---,0.00,VWS V14.00,2013-06-27 16:45:00,
2013-06-27 12:50:00,87.9,76.5,29.83,SSW,202,1.1,1.1,69,0.00,,---,0.00,VWS V14.00,2013-06-27 16:50:00,
2013-06-27 12:55:00,88.1,75.8,29.82,NW,315,2.2,2.2,67,0.00,,---,0.00,VWS V14.00,2013-06-27 16:55:00,
2013-06-27 13:00:00,88.3,76.0,29.82,WSW,248,0.0,0.0,67,0.00,,---,0.00,VWS V14.00,2013-06-27 17:00:00,
2013-06-27 13:05:00,88.3,75.5,29.83,NW,315,2.4,2.4,66,0.00,,---,0.00,VWS V14.00,2013-06-27 17:05:00,
2013-06-27 13:10:00,88.5,76.6,29.82,West,270,2.9,2.9,68,0.00,,---,0.00,VWS V14.00,2013-06-27 17:10:00,
2013-06-27 13:15:00,88.8,76.4,29.83,West,270,1.7,1.7,67,0.00,,---,0.00,VWS V14.00,2013-06-27 17:15:00,
2013-06-27 13:20:00,89.2,76.4,29.83,NW,315,0.0,0.0,66,0.00,,---,0.00,VWS V14.00,2013-06-27 17:20:00,
2013-06-27 13:25:00,89.2,75.9,29.84,NW,315,0.0,0.0,65,0.00,,---,0.00,VWS V14.00,2013-06-27 17:25:00,
2013-06-27 13:30:00,89.2,75.9,29.83,NW,315,1.5,1.5,65,0.00,,---,0.00,VWS V14.00,2013-06-27 17:30:00,
2013-06-27 13:35:00,88.8,75.1,29.83,NNE,22,3.8,3.8,64,0.00,,---,0.00,VWS V14.00,2013-06-27 17:35:00,
2013-06-27 13:40:00,87.4,72.8,29.84,NNE,22,2.0,2.0,62,0.00,,---,0.00,VWS V14.00,2013-06-27 17:40:00,
2013-06-27 13:45:00,86.1,72.0,29.84,NE,45,1.1,1.1,63,0.00,,---,0.00,VWS V14.00,2013-06-27 17:45:00,
2013-06-27 13:50:00,85.2,72.1,29.83,NE,45,1.1,1.1,65,0.00,,---,0.00,VWS V14.00,2013-06-27 17:50:00,
2013-06-27 13:55:00,84.7,72.1,29.83,NE,45,2.6,2.6,66,0.00,,---,0.00,VWS V14.00,2013-06-27 17:55:00,
2013-06-27 14:00:00,84.7,72.5,29.83,North,0,0.0,0.0,67,0.00,,---,0.00,VWS V14.00,2013-06-27 18:00:00,
2013-06-27 14:05:00,84.9,72.7,29.83,ENE,68,9.1,9.1,67,0.00,,---,0.00,VWS V14.00,2013-06-27 18:05:00,
2013-06-27 14:10:00,85.2,72.6,29.83,ENE,68,6.0,6.0,66,0.00,,---,0.00,VWS V14.00,2013-06-27 18:10:00,
2013-06-27 14:15:00,85.8,72.2,29.83,NE,45,0.0,0.0,64,0.00,,---,0.00,VWS V14.00,2013-06-27 18:15:00,
2013-06-27 14:20:00,86.7,72.6,29.83,NE,45,0.0,0.0,63,0.00,,---,0.00,VWS V14.00,2013-06-27 18:20:00,
2013-06-27 14:25:00,87.4,73.3,29.82,ENE,68,0.0,0.0,63,0.00,,---,0.00,VWS V14.00,2013-06-27 18:25:00,
2013-06-27 14:30:00,88.1,73.4,29.82,NE,45,2.0,2.0,62,0.00,,---,0.00,VWS V14.00,2013-06-27 18:30:00,
2013-06-27 14:35:00,88.5,73.8,29.82,NE,45,0.0,0.0,62,0.00,,---,0.00,VWS V14.00,2013-06-27 18:35:00,
2013-06-27 14:40:00,88.8,74.1,29.82,NE,45,0.0,0.0,62,0.00,,---,0.00,VWS V14.00,2013-06-27 18:40:00,
2013-06-27 14:45:00,89.2,75.0,29.82,ENE,68,0.0,0.0,63,0.00,,---,0.00,VWS V14.00,2013-06-27 18:45:00,
2013-06-27 14:50:00,89.7,74.5,29.82,WNW,292,0.0,0.0,61,0.00,,---,0.00,VWS V14.00,2013-06-27 18:50:00,
2013-06-27 14:55:00,89.9,74.7,29.82,WNW,292,1.7,1.7,61,0.00,,---,0.00,VWS V14.00,2013-06-27 18:55:00,
2013-06-27 15:00:00,89.9,75.1,29.81,NNW,338,0.0,0.0,62,0.00,,---,0.00,VWS V14.00,2013-06-27 19:00:00,
2013-06-27 15:05:00,90.3,75.0,29.80,NW,315,0.0,0.0,61,0.00,,---,0.00,VWS V14.00,2013-06-27 19:05:00,
2013-06-27 15:10:00,90.5,76.2,29.80,WNW,292,2.9,3.5,63,0.00,,---,0.00,VWS V14.00,2013-06-27 19:10:00,
2013-06-27 15:15:00,90.5,77.1,29.80,West,270,2.6,2.6,65,0.00,,---,0.00,VWS V14.00,2013-06-27 19:15:00,
2013-06-27 15:20:00,89.7,76.4,29.80,WNW,292,2.4,2.4,65,0.00,,---,0.00,VWS V14.00,2013-06-27 19:20:00,
2013-06-27 15:25:00,89.6,76.7,29.80,WSW,248,2.9,2.9,66,0.00,,---,0.00,VWS V14.00,2013-06-27 19:25:00,
2013-06-27 15:30:00,89.7,77.3,29.80,SW,225,3.3,3.3,67,0.00,,---,0.00,VWS V14.00,2013-06-27 19:30:00,
2013-06-27 15:35:00,90.1,77.7,29.80,WNW,292,1.3,2.6,67,0.00,,---,0.00,VWS V14.00,2013-06-27 19:35:00,
2013-06-27 15:40:00,90.5,77.6,29.80,NW,315,0.0,2.4,66,0.00,,---,0.00,VWS V14.00,2013-06-27 19:40:00,
2013-06-27 15:45:00,90.3,77.4,29.80,WSW,248,0.0,0.0,66,0.00,,---,0.00,VWS V14.00,2013-06-27 19:45:00,
2013-06-27 15:50:00,90.5,78.1,29.80,West,270,2.0,2.0,67,0.00,,---,0.00,VWS V14.00,2013-06-27 19:50:00,
2013-06-27 15:55:00,90.8,77.4,29.80,WNW,292,2.2,2.2,65,0.00,,---,0.00,VWS V14.00,2013-06-27 19:55:00,
2013-06-27 16:00:00,91.0,77.6,29.79,WNW,292,2.2,2.2,65,0.00,,---,0.00,VWS V14.00,2013-06-27 20:00:00,
2013-06-27 16:05:00,91.0,77.6,29.79,NNW,338,4.0,4.0,65,0.00,,---,0.00,VWS V14.00,2013-06-27 20:05:00,
2013-06-27 16:10:00,90.6,76.8,29.79,WSW,248,1.1,1.1,64,0.00,,---,0.00,VWS V14.00,2013-06-27 20:10:00,
2013-06-27 16:15:00,90.6,76.8,29.78,NW,315,3.3,3.3,64,0.00,,---,0.00,VWS V14.00,2013-06-27 20:15:00,
2013-06-27 16:20:00,90.5,77.1,29.78,WNW,292,3.3,3.3,65,0.00,,---,0.00,VWS V14.00,2013-06-27 20:20:00,
2013-06-27 16:25:00,90.6,76.8,29.78,SSW,202,1.5,1.5,64,0.00,,---,0.00,VWS V14.00,2013-06-27 20:25:00,
2013-06-27 16:30:00,90.5,77.1,29.78,WNW,292,0.0,2.9,65,0.00,,---,0.00,VWS V14.00,2013-06-27 20:30:00,
2013-06-27 16:35:00,90.6,76.8,29.78,NW,315,2.4,3.3,64,0.00,,---,0.00,VWS V14.00,2013-06-27 20:35:00,
2013-06-27 16:40:00,90.3,76.5,29.77,NW,315,1.5,1.5,64,0.00,,---,0.00,VWS V14.00,2013-06-27 20:40:00,
2013-06-27 16:45:00,90.3,76.9,29.77,West,270,1.1,1.1,65,0.00,,---,0.00,VWS V14.00,2013-06-27 20:45:00,
2013-06-27 16:50:00,90.3,76.5,29.77,West,270,0.0,0.0,64,0.00,,---,0.00,VWS V14.00,2013-06-27 20:50:00,
2013-06-27 16:55:00,90.3,76.5,29.77,North,0,2.0,2.0,64,0.00,,---,0.00,VWS V14.00,2013-06-27 20:55:00,
2013-06-27 17:00:00,89.9,76.6,29.77,NW,315,2.0,2.0,65,0.00,,---,0.00,VWS V14.00,2013-06-27 21:00:00,
2013-06-27 17:05:00,89.9,76.6,29.76,NW,315,0.0,0.0,65,0.00,,---,0.00,VWS V14.00,2013-06-27 21:05:00,
2013-06-27 17:10:00,89.9,76.6,29.76,SW,225,0.0,0.0,65,0.00,,---,0.00,VWS V14.00,2013-06-27 21:10:00,
2013-06-27 17:15:00,90.3,76.9,29.77,WNW,292,0.0,0.0,65,0.00,,---,0.00,VWS V14.00,2013-06-27 21:15:00,
2013-06-27 17:20:00,90.1,76.8,29.77,NW,315,0.0,0.0,65,0.00,,---,0.00,VWS V14.00,2013-06-27 21:20:00,
2013-06-27 17:26:00,89.6,76.3,29.78,ESE,112,2.4,2.4,65,0.00,,---,0.00,VWS V14.00,2013-06-27 21:26:00,
2013-06-27 17:31:00,88.8,74.1,29.78,East,90,4.2,4.2,62,0.00,,---,0.00,VWS V14.00,2013-06-27 21:31:00,
2013-06-27 17:36:00,87.6,73.0,29.78,ESE,112,1.1,1.1,62,0.00,,---,0.00,VWS V14.00,2013-06-27 21:36:00,
2013-06-27 17:41:00,86.7,72.6,29.78,NE,45,0.8,0.8,63,0.00,,---,0.00,VWS V14.00,2013-06-27 21:41:00,
2013-06-27 17:46:00,86.1,72.5,29.78,East,90,0.8,0.8,64,0.00,,---,0.00,VWS V14.00,2013-06-27 21:46:00,
2013-06-27 17:51:00,85.8,73.1,29.77,SSE,158,0.0,0.0,66,0.00,,---,0.00,VWS V14.00,2013-06-27 21:51:00,
2013-06-27 17:56:00,86.5,74.2,29.77,SSW,202,2.9,2.9,67,0.00,,---,0.00,VWS V14.00,2013-06-27 21:56:00,
2013-06-27 18:01:00,86.9,74.6,29.77,WSW,248,7.3,7.3,67,0.00,,---,0.00,VWS V14.00,2013-06-27 22:01:00,
2013-06-27 18:06:00,87.4,75.1,29.77,NW,315,2.0,2.0,67,0.00,,---,0.00,VWS V14.00,2013-06-27 22:06:00,
2013-06-27 18:11:00,87.6,75.3,29.77,NW,315,0.0,0.0,67,0.00,,---,0.00,VWS V14.00,2013-06-27 22:11:00,
2013-06-27 18:16:00,87.6,75.3,29.77,WNW,292,0.0,1.1,67,0.00,,---,0.00,VWS V14.00,2013-06-27 22:16:00,
2013-06-27 18:21:00,87.6,75.3,29.77,West,270,0.0,0.0,67,0.00,,---,0.00,VWS V14.00,2013-06-27 22:21:00,
2013-06-27 18:26:00,87.8,75.5,29.77,WNW,292,3.5,3.5,67,0.00,,---,0.00,VWS V14.00,2013-06-27 22:26:00,
2013-06-27 18:31:00,87.9,76.0,29.77,West,270,0.0,0.0,68,0.00,,---,0.00,VWS V14.00,2013-06-27 22:31:00,
2013-06-27 18:36:00,87.9,75.6,29.78,West,270,0.0,0.0,67,0.00,,---,0.00,VWS V14.00,2013-06-27 22:36:00,
2013-06-27 18:41:00,88.1,76.2,29.77,WSW,248,0.0,1.1,68,0.00,,---,0.00,VWS V14.00,2013-06-27 22:41:00,
2013-06-27 18:46:00,88.3,76.4,29.77,West,270,0.0,2.2,68,0.00,,---,0.00,VWS V14.00,2013-06-27 22:46:00,
2013-06-27 18:51:00,88.7,75.9,29.77,WSW,248,0.2,1.1,66,0.00,,---,0.00,VWS V14.00,2013-06-27 22:51:00,
2013-06-27 18:56:00,88.8,76.0,29.77,WNW,292,1.3,1.3,66,0.00,,---,0.00,VWS V14.00,2013-06-27 22:56:00,
2013-06-27 19:01:00,88.8,75.5,29.78,NW,315,2.2,2.2,65,0.00,,---,0.00,VWS V14.00,2013-06-27 23:01:00,
2013-06-27 19:06:00,89.4,76.1,29.78,WNW,292,2.2,2.2,65,0.00,,---,0.00,VWS V14.00,2013-06-27 23:06:00,
2013-06-27 19:12:00,89.4,76.1,29.78,West,270,1.5,1.5,65,0.00,,---,0.00,VWS V14.00,2013-06-27 23:12:00,
2013-06-27 19:17:00,88.8,75.5,29.78,West,270,0.0,0.0,65,0.00,,---,0.00,VWS V14.00,2013-06-27 23:17:00,
2013-06-27 19:22:00,89.4,76.1,29.78,NW,315,0.0,2.6,65,0.00,,---,0.00,VWS V14.00,2013-06-27 23:22:00,
2013-06-27 19:27:00,89.4,76.1,29.78,WNW,292,0.6,1.7,65,0.00,,---,0.00,VWS V14.00,2013-06-27 23:27:00,
2013-06-27 19:32:00,90.3,76.5,29.78,WNW,292,3.3,3.3,64,0.00,,---,0.00,VWS V14.00,2013-06-27 23:32:00,
2013-06-27 19:37:00,92.1,76.7,29.77,NW,315,2.2,2.2,61,0.00,,---,0.00,VWS V14.00,2013-06-27 23:37:00,
2013-06-27 19:42:00,92.3,76.4,29.77,SSW,202,6.2,6.2,60,0.00,,---,0.00,VWS V14.00,2013-06-27 23:42:00,
2013-06-27 19:47:00,91.7,76.8,29.77,WNW,292,2.0,2.0,62,0.00,,---,0.00,VWS V14.00,2013-06-27 23:47:00,
2013-06-27 19:52:00,92.8,76.9,29.78,WSW,248,0.0,0.0,60,0.00,,---,0.00,VWS V14.00,2013-06-27 23:52:00,
2013-06-27 19:57:00,93.3,76.8,29.78,South,180,0.0,0.0,59,0.00,,---,0.00,VWS V14.00,2013-06-27 23:57:00,
2013-06-27 20:02:00,92.3,76.4,29.77,NW,315,1.1,1.1,60,0.00,,---,0.00,VWS V14.00,2013-06-28 00:02:00,
2013-06-27 20:07:00,90.1,75.3,29.77,West,270,0.0,0.0,62,0.00,,---,0.00,VWS V14.00,2013-06-28 00:07:00,
2013-06-27 20:12:00,88.7,75.0,29.77,WSW,248,0.0,0.0,64,0.00,,---,0.00,VWS V14.00,2013-06-28 00:12:00,
2013-06-27 20:17:00,87.6,74.4,29.77,SW,225,0.0,0.0,65,0.00,,---,0.00,VWS V14.00,2013-06-28 00:17:00,
2013-06-27 20:22:00,86.5,74.2,29.77,WNW,292,2.6,2.6,67,0.00,,---,0.00,VWS V14.00,2013-06-28 00:22:00,
2013-06-27 20:27:00,85.8,74.0,29.77,West,270,0.0,0.0,68,0.00,,---,0.00,VWS V14.00,2013-06-28 00:27:00,
2013-06-27 20:32:00,85.2,73.9,29.77,WNW,292,0.0,0.0,69,0.00,,---,0.00,VWS V14.00,2013-06-28 00:32:00,
2013-06-27 20:37:00,84.7,73.8,29.76,WNW,292,0.0,0.0,70,0.00,,---,0.00,VWS V14.00,2013-06-28 00:37:00,
2013-06-27 20:42:00,84.3,73.9,29.77,NW,315,0.0,0.0,71,0.00,,---,0.00,VWS V14.00,2013-06-28 00:42:00,
2013-06-27 20:48:00,84.0,74.0,29.77,West,270,0.0,0.0,72,0.00,,---,0.00,VWS V14.00,2013-06-28 00:48:00,
2013-06-27 20:53:00,83.6,73.6,29.76,WNW,292,0.0,0.0,72,0.00,,---,0.00,VWS V14.00,2013-06-28 00:53:00,
2013-06-27 20:58:00,83.4,73.8,29.76,West,270,0.0,0.0,73,0.00,,---,0.00,VWS V14.00,2013-06-28 00:58:00,
2013-06-27 21:03:00,83.3,73.8,29.76,West,270,3.5,3.5,73,0.00,,---,0.00,VWS V14.00,2013-06-28 01:03:00,
2013-06-27 21:08:00,83.1,74.0,29.76,West,270,0.0,0.0,74,0.00,,---,0.00,VWS V14.00,2013-06-28 01:08:00,
2013-06-27 21:13:00,82.9,73.8,29.77,West,270,0.0,0.0,74,0.00,,---,0.00,VWS V14.00,2013-06-28 01:13:00,
2013-06-27 21:18:00,82.7,74.0,29.77,West,270,0.0,0.0,75,0.00,,---,0.00,VWS V14.00,2013-06-28 01:18:00,
2013-06-27 21:23:00,82.7,74.0,29.77,West,270,0.0,0.0,75,0.00,,---,0.00,VWS V14.00,2013-06-28 01:23:00,
2013-06-27 21:28:00,82.7,74.0,29.77,West,270,0.0,0.0,75,0.00,,---,0.00,VWS V14.00,2013-06-28 01:28:00,
2013-06-27 21:33:00,82.7,74.0,29.77,West,270,0.0,0.0,75,0.00,,---,0.00,VWS V14.00,2013-06-28 01:33:00,
2013-06-27 21:38:00,82.5,73.8,29.77,West,270,0.0,0.0,75,0.00,,---,0.00,VWS V14.00,2013-06-28 01:38:00,
2013-06-27 21:43:00,82.5,73.8,29.77,West,270,0.0,0.0,75,0.00,,---,0.00,VWS V14.00,2013-06-28 01:43:00,
2013-06-27 21:48:00,82.2,73.5,29.77,West,270,0.0,0.0,75,0.00,,---,0.00,VWS V14.00,2013-06-28 01:48:00,
2013-06-27 21:54:00,82.2,73.5,29.78,West,270,0.0,0.0,75,0.00,,---,0.00,VWS V14.00,2013-06-28 01:54:00,
2013-06-27 21:59:00,82.0,73.7,29.78,West,270,0.0,0.0,76,0.00,,---,0.00,VWS V14.00,2013-06-28 01:59:00,
2013-06-27 22:04:00,81.6,73.3,29.78,West,270,0.0,0.0,76,0.00,,---,0.00,VWS V14.00,2013-06-28 02:04:00,
2013-06-27 22:09:00,81.6,73.7,29.78,West,270,0.0,0.0,77,0.00,,---,0.00,VWS V14.00,2013-06-28 02:09:00,
2013-06-27 22:14:00,81.3,73.4,29.78,West,270,0.0,0.0,77,0.00,,---,0.00,VWS V14.00,2013-06-28 02:14:00,
2013-06-27 22:19:00,81.3,73.4,29.78,West,270,0.0,0.0,77,0.00,,---,0.00,VWS V14.00,2013-06-28 02:19:00,
2013-06-27 22:24:00,81.1,73.6,29.78,West,270,0.0,0.0,78,0.00,,---,0.00,VWS V14.00,2013-06-28 02:24:00,
2013-06-27 22:29:00,81.1,74.0,29.78,West,270,0.0,0.0,79,0.00,,---,0.00,VWS V14.00,2013-06-28 02:29:00,
2013-06-27 22:34:00,81.1,74.0,29.78,West,270,0.0,0.0,79,0.00,,---,0.00,VWS V14.00,2013-06-28 02:34:00,
2013-06-27 22:39:00,81.1,74.0,29.77,West,270,0.0,0.0,79,0.00,,---,0.00,VWS V14.00,2013-06-28 02:39:00,
2013-06-27 22:44:00,81.1,74.0,29.77,West,270,0.0,0.0,79,0.00,,---,0.00,VWS V14.00,2013-06-28 02:44:00,
2013-06-27 22:49:00,81.1,74.0,29.77,West,270,0.0,0.0,79,0.00,,---,0.00,VWS V14.00,2013-06-28 02:49:00,
2013-06-27 22:54:00,80.7,73.6,29.77,SW,225,0.0,0.0,79,0.00,,---,0.00,VWS V14.00,2013-06-28 02:54:00,
2013-06-27 22:59:00,80.7,74.0,29.77,SW,225,0.0,0.0,80,0.00,,---,0.00,VWS V14.00,2013-06-28 02:59:00,
2013-06-27 23:04:00,80.4,73.7,29.78,SW,225,0.0,0.0,80,0.00,,---,0.00,VWS V14.00,2013-06-28 03:04:00,
2013-06-27 23:09:00,80.4,73.7,29.78,SW,225,0.0,0.0,80,0.00,,---,0.00,VWS V14.00,2013-06-28 03:09:00,
2013-06-27 23:14:00,80.4,73.7,29.78,SW,225,0.0,0.0,80,0.00,,---,0.00,VWS V14.00,2013-06-28 03:14:00,
2013-06-27 23:19:00,80.4,73.7,29.78,SW,225,0.0,0.0,80,0.00,,---,0.00,VWS V14.00,2013-06-28 03:19:00,
2013-06-27 23:24:00,80.2,73.5,29.78,SW,225,0.0,0.0,80,0.00,,---,0.00,VWS V14.00,2013-06-28 03:24:00,
2013-06-27 23:29:00,80.2,73.5,29.78,SW,225,0.0,0.0,80,0.00,,---,0.00,VWS V14.00,2013-06-28 03:29:00,
2013-06-27 23:34:00,80.2,73.8,29.78,SW,225,0.0,0.0,81,0.00,,---,0.00,VWS V14.00,2013-06-28 03:34:00,
2013-06-27 23:39:00,80.2,73.8,29.78,SW,225,0.0,0.0,81,0.00,,---,0.00,VWS V14.00,2013-06-28 03:39:00,
2013-06-27 23:44:00,80.0,73.3,29.78,SW,225,0.0,0.0,80,0.00,,---,0.00,VWS V14.00,2013-06-28 03:44:00,
2013-06-27 23:49:00,79.8,73.4,29.78,SW,225,0.0,0.0,81,0.00,,---,0.00,VWS V14.00,2013-06-28 03:49:00,
2013-06-27 23:54:00,79.8,73.4,29.78,SW,225,0.0,0.0,81,0.00,,---,0.00,VWS V14.00,2013-06-28 03:54:00,
2013-06-27 23:59:00,79.7,73.4,29.79,SW,225,0.0,0.0,81,0.00,,---,0.00,VWS V14.00,2013-06-28 03:59:00,